パンスターズ彗星

C/2021 A9 ( PanSTARRS )

English version
Home page
Updated on February 27, 2024

---------------------------------------------------------------------

・ プロフィール

発見日 2021年1月12日
発見光度 21.4等
発見者 Pan-STARRS 1 telescope (Haleakala)

・ 写真集

・ 軌道要素

Epoch 2023 Sept. 13.0 TT = JDT 2460200.5
T 2023 Dec. 1.76827 TT                                  Rudenko
q   7.7600380            (2000.0)            P               Q
z  -0.0002105      Peri.  211.46638     -0.25818021     +0.92891137
 +/-0.0000027      Node   314.83795     +0.94578536     +0.29907051
e   1.0016335      Incl.  158.01564     +0.19706100     -0.21835864
>From 318 observations 2020 Dec. 12-2023 Dec. 8, mean residual 0".6.

・ 光度変化

        m1 = -8.5 + 5 logΔ + 25 log r(t + 250)

---------------------------------------------------------------------

軌道要素はM.P.E.C. 2023-X256に掲載されたものです。
光度グラフはComet for Windowsで作成したものです。

---------------------------------------------------------------------

Copyright(C) Seiichi Yoshida (comet@aerith.net). All rights reserved.